Regional Weather Roundup
Issued by NWS

Home | Current Version | Previous Version | Graphics & Text | Print | Product List | Glossary On
Versions: 1 2 3 4 5 6 7 8 9 10 11 12 13 14 15 16 17 18 19 20 21 22 23 24 25 26 27 28 29 30 31 32 33 34 35 36 37 38 39 40 41 42 43 44 45 46 47 48 49 50
000
ASUS45 KBOI 301210
RWRID

IDAHO REGIONAL WEATHER ROUNDUP
NATIONAL WEATHER SERVICE BOISE ID
600 AM MDT THU MAR 30 2017

NOTE: "FAIR" INDICATES FEW OR NO CLOUDS BELOW 12000 FEET
WITH NO SIGNIFICANT WEATHER AND/OR OBSTRUCTIONS TO VISIBILITY

IDZ012-014-301300-
SOUTHWEST IDAHO


CITY           SKY/WX    TMP DP  RH WIND       PRES   REMARKS
BOISE          PTCLDY    46  42  86 SE9       29.72F
CALDWELL       LGT RAIN  46  45  93 W10       29.76F FOG
MOUNTAIN HOME  FOG       48 N/A N/A SE7       29.74F VSB 1
$$

IDZ016-017-301300-
SOUTHCENTRAL IDAHO


CITY           SKY/WX    TMP DP  RH WIND       PRES   REMARKS
BURLEY         LGT RAIN  45  42  89 SW10      29.81F
JEROME         CLOUDY    44  44 100 SE7       29.80F
TWIN FALLS     LGT RAIN  44  42  93 SE7       29.80F
$$

IDZ019>023-301300-
SOUTHEAST IDAHO


CITY           SKY/WX    TMP DP  RH WIND       PRES   REMARKS
IDAHO FALLS    CLOUDY    43  41  93 S17       29.80F
POCATELLO      CLOUDY    44  42  93 S15       29.82F
REXBURG        CLOUDY    41  37  86 SW14G22   29.78S
$$

IDZ006-010-011-018-031-032-301300-
CENTRAL IDAHO MOUNTAINS


CITY           SKY/WX    TMP DP  RH WIND       PRES   REMARKS
MCCALL         CLOUDY    34  32  92 CALM      29.75F
HAILEY         CLOUDY    36  36 100 NW7       29.80F WCI  30
STANLEY          N/A     33  32  96 E3        29.79F
SALMON         CLOUDY    39  37  93 S5        29.79F
CHALLIS        FOG       37  37 100 CALM      29.77F VSB 1/2
$$

IDZ002-004-006-007-026-301300-
NORTHERN IDAHO


CITY           SKY/WX    TMP DP  RH WIND       PRES   REMARKS
LEWISTON       MOCLDY    46  37  71 NW6       29.87R
LOWELL           N/A     44  42  93 CALM      29.88S
COEUR D`ALENE  MOCLDY    40  38  93 S8        29.83R WCI  34
MULLAN PASS    FOG       30  30 100 VRB5      29.77F VSB 3/4 WCI  25
$$



USA.gov is the U.S. government's official web portal to all federal, state and local government web resources and services.